[ hide orbit diagram ]
For accurate long-term ephemerides, please instead use our Horizons system.This orbit viewer was implemented using two-body methods, and hence should not be used for determining accurate long-term trajectories (over several years or decades) or planetary encounter circumstances.
Orbital Elements at Epoch 2459000.5 (2020-May-31.0) TDB
Reference: JPL 10 (heliocentric ecliptic J2000)
Element | Value | Uncertainty (1-sigma) | Units |
e | .1685688393828994 | 5.672e-08 | |
a | 3.139848280163704 | 4.0372e-08 | au |
q | 2.610567699738116 | 1.7261e-07 | au |
i | 2.513583801762481 | 6.3681e-06 | deg |
node | 96.35484952774343 | 0.00022861 | deg |
peri | 5.560512544131837 | 0.00023151 | deg |
M | 91.38120975115348 | 3.5497e-05 | deg |
tp | 2458484.659040048500 (2019-Jan-01.15904005) | 0.00019588 | TDB |
period | 2032.176484511861 5.56 | 3.9194e-05 1.073e-07 | d yr |
n | .1771499683928651 | 3.4167e-09 | deg/d |
Q | 3.669128860589292 | 4.7178e-08 | au |
|
| | Orbit Determination Parameters
Additional Information
|
[ show covariance matrix ]
Physical Parameter Table
Parameter |
Symbol |
Value |
Units |
Sigma |
Reference |
Notes |
absolute magnitude |
H |
16.6 |
|
n/a |
MPO471578 |
|
|
344356 (2001 WV84) Discovered 2001-Nov-20 by LINEAR at Socorro |
Reference: 20121128/Numbers.arc | Last Updated: 2012-12-03 |
|
[ show close-approach data ]
|